Voltar ao catálogo

FENGYUN 1C DEB

LostPO
NORAD 37052·DEBRIS·🇨🇳 China

Lançado May 10, 1999 de Taiyuan Satellite Launch Center

Loading…

Próximas Passagens (próximas 24 horas)

TLE

ObsoletoSource: Space-Track

Época: Jul 27, 2022, 19:28 UTC

1 37052U 99025EEL 22208.81141681  .00000706  00000-0  79391-3 0  9991
2 37052  98.7234  62.9255 0548394 328.7339  28.2213 13.22898051670650

Acompanhe FENGYUN 1C DEB em tempo real com AllMySat

Download on the App Store